This is the latest recevied weather packets stored in our database for station/object N7WSS. If no packets are shown the sender has not sent any weather packets the latest 10 day(s).
| Time | Temp. | Humidity | Pressure | Rain* | Wind** | Luminosity | Snow |
|---|---|---|---|---|---|---|---|
| 1787980405 | 30° C | 42% | 1013.7 hPa | 0 mm | - | - | - |
| 1787980100 | 30° C | 42% | 1013.6 hPa | 0 mm | - | - | - |
| 1787979796 | 30° C | 42% | 1013.6 hPa | 0 mm | - | - | - |
| 1787979495 | 30° C | 43% | 1013.5 hPa | 0 mm | - | - | - |
| 1787979195 | 30° C | 43% | 1013.5 hPa | 0 mm | - | - | - |
| 1787978894 | 30° C | 44% | 1013.5 hPa | 0 mm | - | - | - |
| 1787978589 | 30° C | 43% | 1013.7 hPa | 0 mm | - | - | - |
| 1787978284 | 30° C | 43% | 1013.7 hPa | 0 mm | - | - | - |
| 1787977983 | 30° C | 43% | 1013.5 hPa | 0 mm | - | - | - |
| 1787977684 | 30° C | 43% | 1013.5 hPa | 0 mm | - | - | - |
| 1787977380 | 30.56° C | 42% | 1013.5 hPa | 0 mm | - | - | - |
| 1787977075 | 30.56° C | 41% | 1013.5 hPa | 0 mm | - | - | - |
| 1787976770 | 30.56° C | 41% | 1013.2 hPa | 0 mm | - | - | - |
| 1787976464 | 30.56° C | 40% | 1013.3 hPa | 0 mm | - | - | - |
| 1787976159 | 30.56° C | 40% | 1013.1 hPa | 0 mm | - | - | - |
| 1787975858 | 29.44° C | 41% | 1013.2 hPa | 0 mm | - | - | - |
| 1787975558 | 29.44° C | 44% | 1013.5 hPa | 0 mm | - | - | - |
| 1787975257 | 28.89° C | 44% | 1013.2 hPa | 0 mm | - | - | - |
| 1787974956 | 28.89° C | 45% | 1013.3 hPa | 0 mm | - | - | - |
| 1787974655 | 28.33° C | 45% | 1013.2 hPa | 0 mm | - | - | - |
| 1787974350 | 27.22° C | 48% | 1013.2 hPa | 0 mm | - | - | - |
| 1787974049 | 27.78° C | 51% | 1013.3 hPa | 0 mm | - | - | - |
| 1787973744 | 28.33° C | 47% | 1013.7 hPa | 0 mm | - | - | - |
| 1787973444 | 28.33° C | 45% | 1013.5 hPa | 0 mm | - | - | - |
| 1787973140 | 27.78° C | 53% | 1013.5 hPa | 0 mm | - | - | - |
* Rain latest hour (hover to see other rain measurements)
** Current wind speed in m/s (hover to see current wind gust speed)